Regional Weather Roundup
Issued by NWS Huntsville, AL

Home | Current Version | Previous Version | Text Only | Print | Product List | Glossary On
Versions: 1 2 3 4 5 6 7 8 9 10 11 12 13 14 15 16 17 18 19 20 21 22 23 24 25 26 27 28 29 30 31 32 33 34 35 36 37 38 39 40 41 42 43 44 45 46 47 48 49 50
000
ASUS44 KHUN 292010
RWRHUN

WEATHER ROUNDUP FOR THE TENNESSEE VALLEY
NATIONAL WEATHER SERVICE HUNTSVILLE AL
300 PM CDT SUN MAR 29 2015

ALZ001>004-292100-
NORTHWEST ALABAMA

CITY           SKY/WX    TMP DP  RH WIND       PRES   REMARKS
COURTLAND HCN    N/A     57 N/A N/A S8          N/A
BANKHEAD NF      N/A     59  31  35 SW3         N/A
RUSSELLVILLE     N/A     57 N/A N/A MISG        N/A
SHOALS AIRPORT PTSUNNY   61  35  37 S16       30.20F
$$

ALZ005>007-016-292100-
NORTH CENTRAL ALABAMA

CITY           SKY/WX    TMP DP  RH WIND       PRES   REMARKS
CULLMAN AG STN   N/A     55 N/A N/A S6          N/A
DECATUR AP     CLOUDY    57  32  38 S14       30.24F
HUNTSVILLE AP  CLOUDY    60  30  32 S10       30.23F
HUN NWS/UAH      N/A     59  24  26 S9          N/A
MERIDIANVILLE  PTSUNNY   59  14  17 S13G18    30.24F
REDSTONE ARSN  CLOUDY    58  27  29 S13       30.23F
VINEMONT AP    CLOUDY    55  30  37 S10       30.26F
$$

ALZ008>010-292100-
NORTHEAST ALABAMA

CITY           SKY/WX    TMP DP  RH WIND       PRES   REMARKS
ALBERTVILLE    CLOUDY    57  34  41 S9        30.24F
FORT PAYNE     MOSUNNY   59  18  20 SW8       30.25F
SCOTTSBORO AP  CLOUDY    61  25  25 SW12G18   30.25F
SCOTTSBORO HCN   N/A     59 N/A N/A MISG        N/A
VALLEY HEAD      N/A     57 N/A N/A MISG        N/A
$$

TNZ076-096-097-292100-
SOUTHEASTERN MIDDLE TENNESSEE

CITY           SKY/WX    TMP DP  RH WIND       PRES   REMARKS
TULLAHOMA      MOSUNNY   61  21  21 S9        30.21F
WINCHESTER     MOSUNNY   61  27  27 S9        30.21F
$$

...SURROUNDING SITES...

CITY           SKY/WX    TMP DP  RH WIND       PRES   REMARKS
ATLANTA        MOSUNNY   58  17  20 SE7       30.29F
ANNISTON       CLOUDY    62  28  27 SW7       30.27F
BIRMINGHAM     CLOUDY    59  31  34 S10       30.28F
CHATTANOOGA    MOSUNNY   60  14  16 S10G22    30.26F
CORINTH        CLOUDY    61  37  41 S14G21    30.15F
DALTON         MOSUNNY   59  21  23 S8        30.28F
GADSDEN        CLOUDY    61  25  25 S8        30.25F
GOLDEN TRNGL   MOSUNNY   64  43  45 S12G22    30.19F
HALEYVILLE     PTSUNNY   57  34  42 S10G17    30.23F
JACKSON TN     PTSUNNY   60  38  43 S15G23    30.11F
LEWISBURG      PTSUNNY   58  28  32 S16       30.18F
MEMPHIS        SUNNY     66  45  46 S15       30.10F
MURFREESBORO   FAIR      61  24  24 SW16      30.18F
NASHVILLE      MOSUNNY   62  26  25 S15G23    30.16F
OXFORD MS      FAIR      64  43  45 S13G22    30.14F
ROME           SUNNY     61  21  21 S13G20    30.26F
SAVANNAH       CLOUDY    55  36  47 S10       30.16F
TUPELO         MOSUNNY   62  39  42 S14G21    30.17F
TUSCALOOSA     CLOUDY    65  36  34 S9        30.24F
$$

...GULF COAST WEATHER...

CITY           SKY/WX    TMP DP  RH WIND       PRES   REMARKS
GULFPORT       PTSUNNY   68  57  68 SE14      30.27F
PASCAGOULA     PTSUNNY   67  55  65 SE12G25   30.28F
MOBILE         CLOUDY    66  52  60 S12       30.29F
GULF SHORES    CLOUDY    64  51  63 SE12G18   30.31F
PENSACOLA      MOSUNNY   65  49  56 SE13      30.31F
DESTIN         PTSUNNY   63  43  48 S8        30.33F
PANAMA CITY    SUNNY     65  41  42 SW13      30.32F
APPALACHICOLA  SUNNY     65  39  38 S12       30.33F
$$



USA.gov is the U.S. government's official web portal to all federal, state and local government web resources and services.